Location: C�mpuri de-Sus
(45.9500°N, 22.5500°E)
Time: 05:05:18
(UTC+00:00)

USA 267 - Pass Details

Date: 24 October 2021
Orbit: 1101 x 1107 km, 123.0° (Epoch: 27 November)

Event Time Altitude Azimuth Distance (km) Brightness Sun altitude
Rises 16:08:14 0° 127° (SE) 3,908 5.7 -7.6°
Reaches altitude 10° 16:10:42 10° 127° (SE) 2,953 5.1 -8.0°
Maximum altitude 16:17:15 88° 217° (SW) 1,107 3.3 -9.2°
Drops below altitude 10° 16:23:49 10° 308° (NW) 2,963 6.2 -10.3°
Sets 16:26:18 0° 309° (NW) 3,924 6.9 -10.7°
